Torna al catalogo

SL-6 R/B(2)

AttivoHEO
NORAD 11847·ROCKET BODY·🇷🇺 Russia

Lanciato Jun 14, 1980 da Plesetsk Cosmodrome

Loading…

Prossimi Passaggi (prossime 24 ore)

TLE

AggiornatoSource: Space-Track

Epoca: Sep 10, 2026, 04:44 UTC

1 11847U 80050B   26253.19762557 -.00001065  00000-0  00000-0 0  9997
2 11847  68.8613 356.3804 6483874 310.0938   9.1198  1.99564310336264

Traccia SL-6 R/B(2) in tempo reale con AllMySat

Download on the App Store